Prescott, AZ

8:18 PM MST on November 11, 2019 (GMT -0700)
Love

Weather History for KPRC - September, 2019

Change the Weather History Date:

Saturday, September 14, 2019

  Actual Average Record
Temperature  
Mean Temperature 72 °F 68 °F  
Max Temperature 87 °F 83 °F 94 °F (2000)
Min Temperature 57 °F 54 °F 39 °F (1993)
Degree Days  
Heating Degree Days 0    
Month to date heating degree days 0  
Since 1 July heating degree days 0  
Cooling Degree Days 7    
Month to date cooling degree days 132  
Year to date cooling degree days 1107  
Growing Degree Days 22 (Base 50)    
Moisture  
Dew Point 46 °F    
Average Humidity 42    
Maximum Humidity 78    
Minimum Humidity 23    
Precipitation  
Precipitation 0.04 in 0.05 in 1.65 in (1999)
Month to date precipitation 1.24 0.78  
Year to date precipitation 9.35 10.44  
Sea Level Pressure  
Sea Level Pressure 29.99 in    
Wind  
Wind Speed 6 mph ()    
Max Wind Speed 25 mph    
Max Gust Speed 33 mph    
Visibility 9.9 miles    
Events Rain , Thunderstorm    
T = Trace of Precipitation, MM = Missing Value Source: Averaged Metar Reports

Daily Weather History Graph

Daily Weather History Graph

Search for Another Location

Airport or City:

Astronomy

Sep. 14, 2019 Rise Set
Actual Time 6:11 AM MST 6:38 PM MST
Civil Twilight 5:46 AM MST 7:03 PM MST
Nautical Twilight 5:16 AM MST 7:32 PM MST
Astronomical Twilight 4:46 AM MST 8:03 PM MST
Moon 7:20 PM MST (9/14) 6:30 AM MST (9/14)
Length of Visible Light 13h 16m
Length of Day
12h 26m
Full, 100% of the Moon is Illuminated
Sep 14
Full
Sep 21
Last Quarter
Sep 28
New
Oct 5
First Quarter
Oct 13
Full

Hourly Weather History & Observations

Time (MST) Temp. Dew Point Humidity Pressure Visibility Wind Dir Wind Speed Gust Speed Precip Events Conditions
12:53 AM 62.1 °F 42.1 °F 48% 29.97 in 10.0 mi South 4.6 mph - N/A   Clear
1:53 AM 62.1 °F 41.0 °F 46% 29.97 in 10.0 mi South 8.1 mph - N/A   Clear
2:53 AM 62.1 °F 39.0 °F 43% 29.96 in 10.0 mi SSW 10.4 mph - N/A   Scattered Clouds
3:53 AM 63.0 °F 39.0 °F 41% 29.96 in 10.0 mi SSE 4.6 mph - N/A   Clear
4:53 AM 57.9 °F 39.0 °F 49% 29.98 in 10.0 mi West 3.5 mph - N/A   Clear
5:53 AM 57.9 °F 41.0 °F 53% 30.01 in 10.0 mi Calm Calm - N/A   Clear
6:53 AM 61.0 °F 39.9 °F 46% 30.03 in 10.0 mi Calm Calm - N/A   Clear
7:53 AM 66.0 °F 39.9 °F 38% 30.04 in 10.0 mi Calm Calm - N/A   Partly Cloudy
8:53 AM 73.9 °F 42.1 °F 32% 30.04 in 10.0 mi NNE 3.5 mph - N/A   Clear
9:53 AM 81.0 °F 48.9 °F 33% 30.01 in 10.0 mi ESE 8.1 mph - N/A   Clear
10:53 AM 82.9 °F 45.0 °F 26% 30.00 in 10.0 mi Variable 3.5 mph - N/A   Clear
11:53 AM 84.9 °F 44.1 °F 24% 29.98 in 10.0 mi Variable 4.6 mph - N/A   Clear
12:53 PM 84.9 °F 43.0 °F 23% 29.96 in 10.0 mi Calm Calm - N/A   Scattered Clouds
1:53 PM 84.2 °F 44.6 °F 25% 29.94 in 10.0 mi SSW 5.8 mph - N/A   Mostly Cloudy
2:53 PM 84.0 °F 46.0 °F 26% 29.92 in 10.0 mi SW 9.2 mph - N/A   Mostly Cloudy
3:53 PM 82.4 °F 46.4 °F 28% 29.90 in 10.0 mi WSW 9.2 mph - N/A   Scattered Clouds
4:53 PM 82.0 °F 48.0 °F 30% 29.93 in 10.0 mi SSW 8.1 mph - N/A   Mostly Cloudy
5:53 PM 79.0 °F 48.0 °F 34% 29.94 in 10.0 mi SSE 9.2 mph - N/A   Mostly Cloudy
6:36 PM 77.0 °F 48.9 °F 37% 30.18 in 10.0 mi East 13.8 mph 28.8 mph N/A Thunderstorm Overcast
6:53 PM 73.0 °F 51.1 °F 46% 29.99 in 10.0 mi ESE 20.7 mph 31.1 mph 0.00 in Rain , Thunderstorm Light Thunderstorms and Rain
7:53 PM 63.0 °F 55.9 °F 78% 30.05 in 7.0 mi SW 18.4 mph 24.2 mph 0.04 in Rain , Thunderstorm Light Thunderstorms and Rain
8:53 PM 66.9 °F 52.0 °F 59% 30.01 in 10.0 mi SSW 5.8 mph - 0.00 in   Mostly Cloudy
9:53 PM 66.9 °F 51.1 °F 57% 29.96 in 10.0 mi SSW 16.1 mph 23.0 mph N/A   Partly Cloudy
10:53 PM 64.9 °F 54.0 °F 68% 29.97 in 10.0 mi NNE 6.9 mph - N/A   Clear
11:53 PM 64.9 °F 54.0 °F 68% 29.96 in 10.0 mi Calm Calm - N/A   Clear